Time,TemperatureF,DewpointF,PressureIn,WindDirection,WindDirectionDegrees,WindSpeedMPH,WindSpeedGustMPH,Humidity,HourlyPrecipIn,Conditions,Clouds,dailyrainin,SoftwareType,DateUTC
2013-01-20 00:01:00,39.3,29.3,29.84,SW,228,2.0,2.0,67,0.00,,,0.00,Wunderground PWS Mod,2013-01-20 05:01:00,
2013-01-20 00:10:00,40.3,29.5,29.83,SW,225,2.0,10.0,65,0.00,,,0.00,Wunderground PWS Mod,2013-01-20 05:10:00,
2013-01-20 00:11:00,39.8,29.4,29.84,South,180,2.0,5.0,66,0.00,,,0.00,Wunderground PWS Mod,2013-01-20 05:11:00,
2013-01-20 00:21:00,40.1,29.3,29.83,SSW,193,2.0,5.0,65,0.00,,,0.00,Wunderground PWS Mod,2013-01-20 05:21:00,
2013-01-20 00:31:00,40.4,29.6,29.83,SSW,210,3.0,5.0,65,0.00,,,0.00,Wunderground PWS Mod,2013-01-20 05:31:00,
2013-01-20 00:41:00,40.4,29.6,29.82,SSE,167,2.0,5.0,65,0.00,,,0.00,Wunderground PWS Mod,2013-01-20 05:41:00,
2013-01-20 00:51:00,40.4,29.9,29.82,South,187,2.0,5.0,66,0.00,,,0.00,Wunderground PWS Mod,2013-01-20 05:51:00,
2013-01-20 01:01:00,40.5,29.7,29.81,SSW,193,2.0,2.0,65,0.00,,,0.00,Wunderground PWS Mod,2013-01-20 06:01:00,
2013-01-20 01:11:00,40.5,29.7,29.80,SSE,153,2.0,6.0,65,0.00,,,0.00,Wunderground PWS Mod,2013-01-20 06:11:00,
2013-01-20 01:21:00,40.7,29.8,29.80,South,182,2.0,2.0,65,0.00,,,0.00,Wunderground PWS Mod,2013-01-20 06:21:00,
2013-01-20 01:31:00,40.7,29.8,29.80,WNW,288,2.0,6.0,65,0.00,,,0.00,Wunderground PWS Mod,2013-01-20 06:31:00,
2013-01-20 01:41:00,40.5,30.0,29.79,WSW,256,2.0,6.0,66,0.00,,,0.00,Wunderground PWS Mod,2013-01-20 06:41:00,
2013-01-20 01:51:00,40.3,29.8,29.79,SW,233,2.0,6.0,66,0.00,,,0.00,Wunderground PWS Mod,2013-01-20 06:51:00,
2013-01-20 02:01:00,40.4,29.9,29.79,West,270,3.0,3.0,66,0.00,,,0.00,Wunderground PWS Mod,2013-01-20 07:01:00,
2013-01-20 02:10:00,40.4,29.9,29.79,WSW,248,2.0,7.0,66,0.00,,,0.00,Wunderground PWS Mod,2013-01-20 07:10:00,
2013-01-20 02:11:00,40.4,29.9,29.78,SSW,196,3.0,7.0,66,0.00,,,0.00,Wunderground PWS Mod,2013-01-20 07:11:00,
2013-01-20 02:21:00,40.4,29.9,29.78,SW,223,3.0,3.0,66,0.00,,,0.00,Wunderground PWS Mod,2013-01-20 07:21:00,
2013-01-20 02:31:00,40.5,29.7,29.77,WSW,248,4.0,7.0,65,0.00,,,0.00,Wunderground PWS Mod,2013-01-20 07:31:00,
2013-01-20 02:41:00,40.4,29.9,29.77,SSW,198,3.0,3.0,66,0.00,,,0.00,Wunderground PWS Mod,2013-01-20 07:41:00,
2013-01-20 02:51:00,40.3,29.8,29.77,SSE,148,4.0,4.0,66,0.00,,,0.00,Wunderground PWS Mod,2013-01-20 07:51:00,
2013-01-20 03:01:00,40.1,29.6,29.77,South,182,3.0,3.0,66,0.00,,,0.00,Wunderground PWS Mod,2013-01-20 08:01:00,
2013-01-20 03:11:00,40.0,29.9,29.76,South,182,3.0,12.0,67,0.00,,,0.00,Wunderground PWS Mod,2013-01-20 08:11:00,
2013-01-20 03:21:00,39.9,29.8,29.75,WSW,242,3.0,12.0,67,0.00,,,0.00,Wunderground PWS Mod,2013-01-20 08:21:00,
2013-01-20 03:31:00,39.9,29.8,29.75,SW,235,3.0,3.0,67,0.00,,,0.00,Wunderground PWS Mod,2013-01-20 08:31:00,
2013-01-20 03:41:00,39.8,29.7,29.74,WNW,282,3.0,3.0,67,0.00,,,0.00,Wunderground PWS Mod,2013-01-20 08:41:00,
2013-01-20 03:51:00,39.7,30.0,29.73,SSW,193,3.0,3.0,68,0.00,,,0.00,Wunderground PWS Mod,2013-01-20 08:51:00,
2013-01-20 04:01:00,39.5,29.8,29.73,South,178,3.0,3.0,68,0.00,,,0.00,Wunderground PWS Mod,2013-01-20 09:01:00,
2013-01-20 04:10:00,39.5,29.8,29.73,SSW,203,3.0,9.0,68,0.00,,,0.00,Wunderground PWS Mod,2013-01-20 09:10:00,
2013-01-20 04:11:00,39.4,29.7,29.72,SW,228,3.0,9.0,68,0.00,,,0.00,Wunderground PWS Mod,2013-01-20 09:11:00,
2013-01-20 04:21:00,39.2,29.9,29.71,SW,222,3.0,3.0,69,0.00,,,0.00,Wunderground PWS Mod,2013-01-20 09:21:00,
2013-01-20 04:31:00,39.0,29.7,29.70,SW,227,3.0,3.0,69,0.00,,,0.00,Wunderground PWS Mod,2013-01-20 09:31:00,
2013-01-20 04:41:00,39.0,29.7,29.70,SW,225,4.0,9.0,69,0.00,,,0.00,Wunderground PWS Mod,2013-01-20 09:41:00,
2013-01-20 04:51:00,39.0,29.7,29.70,SSW,192,4.0,4.0,69,0.00,,,0.00,Wunderground PWS Mod,2013-01-20 09:51:00,
2013-01-20 05:01:00,38.9,29.9,29.70,SSE,148,3.0,3.0,70,0.00,,,0.00,Wunderground PWS Mod,2013-01-20 10:01:00,
2013-01-20 05:11:00,38.7,29.8,29.69,West,264,3.0,10.0,70,0.00,,,0.00,Wunderground PWS Mod,2013-01-20 10:11:00,
2013-01-20 05:21:00,38.6,29.7,29.69,SW,225,3.0,10.0,70,0.00,,,0.00,Wunderground PWS Mod,2013-01-20 10:21:00,
2013-01-20 05:31:00,38.5,29.6,29.68,SSW,193,3.0,3.0,70,0.00,,,0.00,Wunderground PWS Mod,2013-01-20 10:31:00,
2013-01-20 05:41:00,38.3,29.7,29.68,South,185,3.0,10.0,71,0.00,,,0.00,Wunderground PWS Mod,2013-01-20 10:41:00,
2013-01-20 05:51:00,38.1,29.5,29.68,West,259,3.0,10.0,71,0.00,,,0.00,Wunderground PWS Mod,2013-01-20 10:51:00,
2013-01-20 06:01:00,38.1,29.5,29.68,SSW,200,3.0,3.0,71,0.00,,,0.00,Wunderground PWS Mod,2013-01-20 11:01:00,
2013-01-20 06:10:00,38.1,29.5,29.68,SW,225,3.0,11.0,71,0.00,,,0.00,Wunderground PWS Mod,2013-01-20 11:10:00,
2013-01-20 06:11:00,38.0,29.4,29.67,SW,223,3.0,11.0,71,0.00,,,0.00,Wunderground PWS Mod,2013-01-20 11:11:00,
2013-01-20 06:21:00,37.8,29.2,29.66,South,191,3.0,11.0,71,0.00,,,0.00,Wunderground PWS Mod,2013-01-20 11:21:00,
2013-01-20 06:31:00,37.6,29.4,29.66,SSW,200,3.0,3.0,72,0.00,,,0.00,Wunderground PWS Mod,2013-01-20 11:31:00,
2013-01-20 06:41:00,37.6,29.4,29.66,SSW,209,3.0,3.0,72,0.00,,,0.00,Wunderground PWS Mod,2013-01-20 11:41:00,
2013-01-20 06:51:00,37.5,29.3,29.66,South,177,3.0,11.0,72,0.00,,,0.00,Wunderground PWS Mod,2013-01-20 11:51:00,
2013-01-20 07:01:00,37.5,29.3,29.66,South,187,3.0,11.0,72,0.00,,,0.00,Wunderground PWS Mod,2013-01-20 12:01:00,
2013-01-20 07:11:00,37.5,29.3,29.66,SW,225,3.0,3.0,72,0.00,,,0.00,Wunderground PWS Mod,2013-01-20 12:11:00,
2013-01-20 07:21:00,37.5,29.3,29.66,SW,220,4.0,4.0,72,0.00,,,0.00,Wunderground PWS Mod,2013-01-20 12:21:00,
2013-01-20 07:31:00,37.7,29.1,29.66,SW,223,3.0,3.0,71,0.00,,,0.00,Wunderground PWS Mod,2013-01-20 12:31:00,
2013-01-20 07:41:00,37.8,29.2,29.66,SSE,159,3.0,11.0,71,0.00,,,0.00,Wunderground PWS Mod,2013-01-20 12:41:00,
2013-01-20 07:51:00,37.9,29.3,29.66,South,188,3.0,11.0,71,0.00,,,0.00,Wunderground PWS Mod,2013-01-20 12:51:00,
2013-01-20 08:01:00,38.1,29.5,29.65,WSW,253,4.0,4.0,71,0.00,,,0.00,Wunderground PWS Mod,2013-01-20 13:01:00,
2013-01-20 08:10:00,38.1,29.5,29.65,SSW,203,3.0,12.0,71,0.00,,,0.00,Wunderground PWS Mod,2013-01-20 13:10:00,
2013-01-20 08:11:00,38.3,29.4,29.66,South,177,3.0,12.0,70,0.00,,,0.00,Wunderground PWS Mod,2013-01-20 13:11:00,
2013-01-20 08:21:00,38.5,29.6,29.65,South,188,4.0,4.0,70,0.00,,,0.00,Wunderground PWS Mod,2013-01-20 13:21:00,
2013-01-20 08:31:00,39.1,29.8,29.65,SW,217,3.0,12.0,69,0.00,,,0.00,Wunderground PWS Mod,2013-01-20 13:31:00,
2013-01-20 08:41:00,39.4,29.7,29.65,SSW,198,4.0,4.0,68,0.00,,,0.00,Wunderground PWS Mod,2013-01-20 13:41:00,
2013-01-20 08:51:00,39.8,29.7,29.65,SSW,200,3.0,3.0,67,0.00,,,0.00,Wunderground PWS Mod,2013-01-20 13:51:00,
2013-01-20 09:01:00,40.2,29.7,29.65,SSW,200,4.0,4.0,66,0.00,,,0.00,Wunderground PWS Mod,2013-01-20 14:01:00,
2013-01-20 09:11:00,40.7,29.8,29.64,SW,228,4.0,9.0,65,0.00,,,0.00,Wunderground PWS Mod,2013-01-20 14:11:00,
2013-01-20 09:21:00,41.4,30.1,29.64,SSE,167,3.0,9.0,64,0.00,,,0.00,Wunderground PWS Mod,2013-01-20 14:21:00,
2013-01-20 09:31:00,42.0,30.3,29.64,SSW,212,3.0,3.0,63,0.00,,,0.00,Wunderground PWS Mod,2013-01-20 14:31:00,
2013-01-20 09:40:00,42.0,30.3,29.64,SW,225,3.0,8.0,63,0.00,,,0.00,Wunderground PWS Mod,2013-01-20 14:40:00,
2013-01-20 09:41:00,41.9,29.8,29.64,West,259,3.0,9.0,62,0.00,,,0.00,Wunderground PWS Mod,2013-01-20 14:41:00,
2013-01-20 09:51:00,42.7,30.6,29.64,WSW,247,2.0,2.0,62,0.00,,,0.00,Wunderground PWS Mod,2013-01-20 14:51:00,
2013-01-20 10:01:00,43.8,30.4,29.64,South,175,3.0,3.0,59,0.00,,,0.00,Wunderground PWS Mod,2013-01-20 15:01:00,
2013-01-20 10:11:00,44.4,30.5,29.64,WSW,253,3.0,3.0,58,0.00,,,0.00,Wunderground PWS Mod,2013-01-20 15:11:00,
2013-01-20 10:21:00,45.1,30.8,29.63,SSE,165,3.0,3.0,57,0.00,,,0.00,Wunderground PWS Mod,2013-01-20 15:21:00,
2013-01-20 10:31:00,45.5,31.1,29.63,West,263,3.0,9.0,57,0.00,,,0.00,Wunderground PWS Mod,2013-01-20 15:31:00,
2013-01-20 10:41:00,46.2,31.4,29.63,WSW,249,3.0,9.0,56,0.00,,,0.00,Wunderground PWS Mod,2013-01-20 15:41:00,
2013-01-20 10:51:00,46.9,31.1,29.64,WSW,258,3.0,9.0,54,0.00,,,0.00,Wunderground PWS Mod,2013-01-20 15:51:00,
2013-01-20 11:00:00,47.8,31.5,29.64,West,270,3.0,8.0,53,0.00,,,0.00,Wunderground PWS Mod,2013-01-20 16:00:00,
2013-01-20 11:01:00,47.9,32.0,29.64,SSE,161,3.0,9.0,54,0.00,,,0.00,Wunderground PWS Mod,2013-01-20 16:01:00,
2013-01-20 11:11:00,49.3,32.4,29.64,WSW,245,2.0,8.0,52,0.00,,,0.00,Wunderground PWS Mod,2013-01-20 16:11:00,
2013-01-20 11:21:00,50.8,32.8,29.64,WSW,244,2.0,8.0,50,0.00,,,0.00,Wunderground PWS Mod,2013-01-20 16:21:00,
2013-01-20 11:31:00,51.4,31.8,29.65,NW,317,3.0,3.0,47,0.00,,,0.00,Wunderground PWS Mod,2013-01-20 16:31:00,
2013-01-20 11:41:00,50.7,31.2,29.66,SE,146,4.0,4.0,47,0.00,,,0.00,Wunderground PWS Mod,2013-01-20 16:41:00,
2013-01-20 11:51:00,48.8,32.4,29.66,NNW,333,5.0,8.0,53,0.00,,,0.00,Wunderground PWS Mod,2013-01-20 16:51:00,
2013-01-20 12:01:00,47.9,31.6,29.66,NNW,336,5.0,5.0,53,0.00,,,0.00,Wunderground PWS Mod,2013-01-20 17:01:00,
2013-01-20 12:10:00,47.9,31.6,29.67,NW,315,5.0,13.0,53,0.00,,,0.00,Wunderground PWS Mod,2013-01-20 17:10:00,
2013-01-20 12:11:00,48.3,31.0,29.67,NNE,16,5.0,13.0,51,0.00,,,0.00,Wunderground PWS Mod,2013-01-20 17:11:00,
2013-01-20 12:21:00,48.1,29.8,29.67,NNW,327,5.0,5.0,49,0.00,,,0.00,Wunderground PWS Mod,2013-01-20 17:21:00,
2013-01-20 12:31:00,48.1,29.8,29.67,North,355,3.0,3.0,49,0.00,,,0.00,Wunderground PWS Mod,2013-01-20 17:31:00,
2013-01-20 12:41:00,48.9,29.5,29.67,NNW,341,3.0,3.0,47,0.00,,,0.00,Wunderground PWS Mod,2013-01-20 17:41:00,
2013-01-20 12:51:00,49.7,28.6,29.67,NW,309,3.0,13.0,44,0.00,,,0.00,Wunderground PWS Mod,2013-01-20 17:51:00,
2013-01-20 13:01:00,49.6,25.6,29.67,North,5,4.0,13.0,39,0.00,,,0.00,Wunderground PWS Mod,2013-01-20 18:01:00,
2013-01-20 13:11:00,49.8,24.5,29.67,NW,321,4.0,11.0,37,0.00,,,0.00,Wunderground PWS Mod,2013-01-20 18:11:00,
2013-01-20 13:21:00,49.7,23.8,29.67,NW,318,5.0,5.0,36,0.00,,,0.00,Wunderground PWS Mod,2013-01-20 18:21:00,
2013-01-20 13:31:00,50.5,23.1,29.67,North,360,3.0,11.0,34,0.00,,,0.00,Wunderground PWS Mod,2013-01-20 18:31:00,
2013-01-20 13:41:00,51.1,21.5,29.68,NW,317,3.0,11.0,31,0.00,,,0.00,Wunderground PWS Mod,2013-01-20 18:41:00,
2013-01-20 13:51:00,50.4,17.6,29.69,SW,234,4.0,11.0,27,0.00,,,0.00,Wunderground PWS Mod,2013-01-20 18:51:00,
2013-01-20 14:01:00,50.3,13.9,29.70,NW,306,4.0,11.0,23,0.00,,,0.00,Wunderground PWS Mod,2013-01-20 19:01:00,
2013-01-20 14:10:00,50.4,13.9,29.70,NW,315,4.0,10.0,23,0.00,,,0.00,Wunderground PWS Mod,2013-01-20 19:10:00,
2013-01-20 14:11:00,49.7,15.2,29.71,SW,216,4.0,10.0,25,0.00,,,0.00,Wunderground PWS Mod,2013-01-20 19:11:00,
2013-01-20 14:21:00,49.1,15.6,29.71,West,270,4.0,4.0,26,0.00,,,0.00,Wunderground PWS Mod,2013-01-20 19:21:00,
2013-01-20 14:31:00,49.2,14.8,29.71,North,355,4.0,4.0,25,0.00,,,0.00,Wunderground PWS Mod,2013-01-20 19:31:00,
2013-01-20 14:41:00,48.6,14.3,29.73,NW,321,5.0,5.0,25,0.00,,,0.00,Wunderground PWS Mod,2013-01-20 19:41:00,
2013-01-20 14:51:00,48.6,13.4,29.73,North,355,3.0,10.0,24,0.00,,,0.00,Wunderground PWS Mod,2013-01-20 19:51:00,
2013-01-20 15:01:00,47.9,16.3,29.75,NNW,340,3.0,3.0,28,0.00,,,0.00,Wunderground PWS Mod,2013-01-20 20:01:00,
2013-01-20 15:11:00,46.5,17.4,29.76,WNW,294,5.0,5.0,31,0.00,,,0.00,Wunderground PWS Mod,2013-01-20 20:11:00,
2013-01-20 15:21:00,46.2,16.4,29.77,NW,319,4.0,11.0,30,0.00,,,0.00,Wunderground PWS Mod,2013-01-20 20:21:00,
2013-01-20 15:30:00,45.5,17.3,29.79,NW,315,4.0,12.0,32,0.00,,,0.00,Wunderground PWS Mod,2013-01-20 20:30:00,
2013-01-20 15:40:00,45.5,17.3,29.79,NW,315,4.0,12.0,32,0.00,,,0.00,Wunderground PWS Mod,2013-01-20 20:40:00,
2013-01-20 15:41:00,44.7,16.6,29.80,NNW,334,4.0,4.0,32,0.00,,,0.00,Wunderground PWS Mod,2013-01-20 20:41:00,
2013-01-20 15:50:00,43.3,17.4,29.82,NNW,338,3.0,11.0,35,0.00,,,0.00,Wunderground PWS Mod,2013-01-20 20:50:00,
2013-01-20 15:51:00,44.4,17.7,29.81,NNW,344,3.0,11.0,34,0.00,,,0.00,Wunderground PWS Mod,2013-01-20 20:51:00,
2013-01-20 16:00:00,43.3,17.4,29.82,NNW,338,3.0,11.0,35,0.00,,,0.00,Wunderground PWS Mod,2013-01-20 21:00:00,
2013-01-20 16:01:00,43.2,18.0,29.82,NNW,333,4.0,4.0,36,0.00,,,0.00,Wunderground PWS Mod,2013-01-20 21:01:00,
2013-01-20 16:10:00,43.3,17.4,29.82,NNW,338,3.0,11.0,35,0.00,,,0.00,Wunderground PWS Mod,2013-01-20 21:10:00,
2013-01-20 16:20:00,40.9,18.4,29.85,NW,315,3.0,7.0,40,0.00,,,0.00,Wunderground PWS Mod,2013-01-20 21:20:00,
2013-01-20 16:21:00,41.7,17.3,29.84,NW,325,3.0,3.0,37,0.00,,,0.00,Wunderground PWS Mod,2013-01-20 21:21:00,
2013-01-20 16:31:00,40.8,18.9,29.85,NNW,333,3.0,11.0,41,0.00,,,0.00,Wunderground PWS Mod,2013-01-20 21:31:00,
2013-01-20 16:41:00,39.4,17.0,29.86,North,360,5.0,11.0,40,0.00,,,0.00,Wunderground PWS Mod,2013-01-20 21:41:00,
2013-01-20 16:51:00,38.7,17.0,29.88,NNW,337,4.0,4.0,41,0.00,,,0.00,Wunderground PWS Mod,2013-01-20 21:51:00,
2013-01-20 17:01:00,38.0,16.9,29.88,NNW,332,4.0,4.0,42,0.00,,,0.00,Wunderground PWS Mod,2013-01-20 22:01:00,
2013-01-20 17:11:00,37.4,17.4,29.89,NNW,342,3.0,9.0,44,0.00,,,0.00,Wunderground PWS Mod,2013-01-20 22:11:00,
2013-01-20 17:21:00,36.7,16.8,29.90,NW,317,3.0,3.0,44,0.00,,,0.00,Wunderground PWS Mod,2013-01-20 22:21:00,
2013-01-20 17:30:00,36.1,16.3,29.90,NW,315,3.0,8.0,44,0.00,,,0.00,Wunderground PWS Mod,2013-01-20 22:30:00,
2013-01-20 17:31:00,36.0,16.7,29.90,NNW,345,3.0,9.0,45,0.00,,,0.00,Wunderground PWS Mod,2013-01-20 22:31:00,
2013-01-20 17:41:00,35.4,16.1,29.91,NW,323,3.0,3.0,45,0.00,,,0.00,Wunderground PWS Mod,2013-01-20 22:41:00,
2013-01-20 17:51:00,34.9,15.7,29.91,NW,311,2.0,9.0,45,0.00,,,0.00,Wunderground PWS Mod,2013-01-20 22:51:00,
2013-01-20 18:01:00,34.6,15.9,29.92,NW,309,2.0,2.0,46,0.00,,,0.00,Wunderground PWS Mod,2013-01-20 23:01:00,
2013-01-20 18:11:00,34.3,16.1,29.92,NW,322,2.0,9.0,47,0.00,,,0.00,Wunderground PWS Mod,2013-01-20 23:11:00,
2013-01-20 18:21:00,34.2,15.0,29.93,NNW,329,2.0,9.0,45,0.00,,,0.00,Wunderground PWS Mod,2013-01-20 23:21:00,
2013-01-20 18:31:00,33.9,14.8,29.94,NW,314,3.0,3.0,45,0.00,,,0.00,Wunderground PWS Mod,2013-01-20 23:31:00,
2013-01-20 18:41:00,33.5,14.9,29.95,North,355,2.0,9.0,46,0.00,,,0.00,Wunderground PWS Mod,2013-01-20 23:41:00,
2013-01-20 18:51:00,33.1,15.0,29.95,NW,309,2.0,9.0,47,0.00,,,0.00,Wunderground PWS Mod,2013-01-20 23:51:00,
2013-01-20 19:01:00,32.8,14.3,29.96,WNW,300,3.0,3.0,46,0.00,,,0.00,Wunderground PWS Mod,2013-01-21 00:01:00,
2013-01-20 19:10:00,32.8,14.3,29.96,NW,315,2.0,8.0,46,0.00,,,0.00,Wunderground PWS Mod,2013-01-21 00:10:00,
2013-01-20 19:11:00,32.5,13.5,29.97,NNW,347,3.0,8.0,45,0.00,,,0.00,Wunderground PWS Mod,2013-01-21 00:11:00,
2013-01-20 19:21:00,32.2,13.2,29.97,NNW,342,3.0,8.0,45,0.00,,,0.00,Wunderground PWS Mod,2013-01-21 00:21:00,
2013-01-20 19:31:00,31.7,13.3,29.98,NNW,342,3.0,3.0,46,0.00,,,0.00,Wunderground PWS Mod,2013-01-21 00:31:00,
2013-01-20 19:41:00,31.3,13.4,29.98,NNW,342,1.0,8.0,47,0.00,,,0.00,Wunderground PWS Mod,2013-01-21 00:41:00,
2013-01-20 19:51:00,31.2,12.8,29.99,NW,313,2.0,2.0,46,0.00,,,0.00,Wunderground PWS Mod,2013-01-21 00:51:00,
2013-01-20 20:01:00,31.0,12.6,29.99,NW,321,1.0,8.0,46,0.00,,,0.00,Wunderground PWS Mod,2013-01-21 01:01:00,
2013-01-20 20:11:00,30.8,12.4,30.00,WNW,288,1.0,1.0,46,0.00,,,0.00,Wunderground PWS Mod,2013-01-21 01:11:00,
2013-01-20 20:21:00,30.6,12.7,30.00,NW,322,1.0,6.0,47,0.00,,,0.00,Wunderground PWS Mod,2013-01-21 01:21:00,
2013-01-20 20:31:00,30.6,13.2,30.01,North,349,1.0,6.0,48,0.00,,,0.00,Wunderground PWS Mod,2013-01-21 01:31:00,
2013-01-20 20:41:00,30.3,13.9,30.01,North,349,1.0,6.0,50,0.00,,,0.00,Wunderground PWS Mod,2013-01-21 01:41:00,
2013-01-20 20:51:00,30.2,10.9,30.01,North,360,2.0,6.0,44,0.00,,,0.00,Wunderground PWS Mod,2013-01-21 01:51:00,
2013-01-20 21:01:00,29.9,11.6,30.02,WSW,254,0.0,6.0,46,0.00,,,0.00,Wunderground PWS Mod,2013-01-21 02:01:00,
2013-01-20 21:10:00,29.9,11.6,30.01,North,0,1.0,5.0,46,0.00,,,0.00,Wunderground PWS Mod,2013-01-21 02:10:00,
2013-01-20 21:11:00,29.7,12.4,30.02,WSW,246,1.0,1.0,48,0.00,,,0.00,Wunderground PWS Mod,2013-01-21 02:11:00,
2013-01-20 21:21:00,29.5,12.7,30.03,NNW,327,1.0,1.0,49,0.00,,,0.00,Wunderground PWS Mod,2013-01-21 02:21:00,
2013-01-20 21:31:00,29.4,11.6,30.03,NNW,338,1.0,1.0,47,0.00,,,0.00,Wunderground PWS Mod,2013-01-21 02:31:00,
2013-01-20 21:41:00,29.2,12.4,30.04,WSW,240,0.0,5.0,49,0.00,,,0.00,Wunderground PWS Mod,2013-01-21 02:41:00,
2013-01-20 22:01:00,29.0,12.2,30.04,WNW,282,2.0,5.0,49,0.00,,,0.00,Wunderground PWS Mod,2013-01-21 03:01:00,
2013-01-20 22:11:00,28.9,12.1,30.04,West,279,1.0,5.0,49,0.00,,,0.00,Wunderground PWS Mod,2013-01-21 03:11:00,
2013-01-20 22:21:00,28.9,11.6,30.04,West,281,1.0,5.0,48,0.00,,,0.00,Wunderground PWS Mod,2013-01-21 03:21:00,
2013-01-20 22:31:00,28.7,11.9,30.04,North,360,1.0,5.0,49,0.00,,,0.00,Wunderground PWS Mod,2013-01-21 03:31:00,
2013-01-20 22:41:00,28.6,12.3,30.05,NNW,330,1.0,5.0,50,0.00,,,0.00,Wunderground PWS Mod,2013-01-21 03:41:00,
2013-01-20 22:50:00,28.7,11.9,30.05,North,0,2.0,8.0,49,0.00,,,0.00,Wunderground PWS Mod,2013-01-21 03:50:00,
2013-01-20 22:51:00,28.7,12.4,30.05,NW,307,1.0,5.0,50,0.00,,,0.00,Wunderground PWS Mod,2013-01-21 03:51:00,
2013-01-20 23:01:00,28.7,11.9,30.05,West,274,2.0,2.0,49,0.00,,,0.00,Wunderground PWS Mod,2013-01-21 04:01:00,
2013-01-20 23:11:00,28.7,12.4,30.05,NNE,31,1.0,8.0,50,0.00,,,0.00,Wunderground PWS Mod,2013-01-21 04:11:00,
2013-01-20 23:21:00,28.7,12.4,30.05,WSW,247,2.0,2.0,50,0.00,,,0.00,Wunderground PWS Mod,2013-01-21 04:21:00,
2013-01-20 23:30:00,28.5,13.1,30.05,WSW,248,1.0,6.0,52,0.00,,,0.00,Wunderground PWS Mod,2013-01-21 04:30:00,
2013-01-20 23:31:00,28.5,13.1,30.05,WSW,252,1.0,1.0,52,0.00,,,0.00,Wunderground PWS Mod,2013-01-21 04:31:00,
2013-01-20 23:41:00,28.3,12.9,30.04,NW,309,1.0,1.0,52,0.00,,,0.00,Wunderground PWS Mod,2013-01-21 04:41:00,
2013-01-20 23:51:00,28.1,13.6,30.05,West,278,1.0,8.0,54,0.00,,,0.00,Wunderground PWS Mod,2013-01-21 04:51:00,